Time,TemperatureF,DewpointF,PressureIn,WindDirection,WindDirectionDegrees,WindSpeedMPH,WindSpeedGustMPH,Humidity,HourlyPrecipIn,Conditions,Clouds,dailyrainin,SoftwareType,DateUTC
2013-06-13 03:00:00,63.0,-99.9,-100.00,NW,320,13.0,-999.0,-999,-99.99,,,-99.99,,2013-06-13 08:00:00,
2013-06-13 03:32:00,63.0,-99.9,-100.00,NW,320,13.0,-999.0,-999,-99.99,,,-99.99,,2013-06-13 08:32:00,
2013-06-13 03:43:00,63.0,-99.9,-100.00,NW,320,13.0,-999.0,-999,-99.99,,,-99.99,,2013-06-13 08:43:00,
2013-06-13 03:52:00,63.0,-99.9,-100.00,NW,320,13.0,-999.0,-999,-99.99,,,-99.99,,2013-06-13 08:52:00,
2013-06-13 11:00:00,63.0,-99.9,29.96,NNW,330,11.0,13.0,-999,-99.99,,,-99.99,,2013-06-13 16:00:00,
2013-06-13 11:30:00,63.0,-99.9,29.96,NNW,330,7.0,7.0,-999,-99.99,,,-99.99,,2013-06-13 16:30:00,
2013-06-13 11:43:00,63.0,-99.9,29.96,NNW,330,11.0,13.0,-999,-99.99,,,-99.99,,2013-06-13 16:43:00,
2013-06-13 11:54:00,63.0,-99.9,29.96,NNW,330,11.0,13.0,-999,-99.99,,,-99.99,,2013-06-13 16:54:00,
2013-06-13 12:12:00,63.0,-99.9,29.96,NNW,330,7.0,7.0,-999,-99.99,,,-99.99,,2013-06-13 17:12:00,
2013-06-13 12:25:00,63.0,-99.9,29.96,NNW,330,7.0,7.0,-999,-99.99,,,-99.99,,2013-06-13 17:25:00,
2013-06-13 13:33:00,61.0,-99.9,29.98,NNE,30,13.0,16.0,-999,-99.99,,,-99.99,,2013-06-13 18:33:00,
2013-06-13 13:43:00,61.0,-99.9,29.98,NNE,30,13.0,16.0,-999,-99.99,,,-99.99,,2013-06-13 18:43:00,
2013-06-13 13:52:00,61.0,-99.9,29.98,NNE,30,13.0,16.0,-999,-99.99,,,-99.99,,2013-06-13 18:52:00,
2013-06-13 14:00:00,61.0,-99.9,29.99,NNE,20,11.0,16.0,-999,-99.99,,,-99.99,,2013-06-13 19:00:00,
2013-06-13 14:02:00,61.0,-99.9,29.98,NE,40,16.0,18.0,-999,-99.99,,,-99.99,,2013-06-13 19:02:00,
2013-06-13 14:11:00,61.0,-99.9,29.98,NE,40,16.0,18.0,-999,-99.99,,,-99.99,,2013-06-13 19:11:00,
2013-06-13 14:23:00,61.0,-99.9,29.98,NE,40,16.0,18.0,-999,-99.99,,,-99.99,,2013-06-13 19:23:00,
2013-06-13 14:33:00,61.0,-99.9,29.99,NNE,20,11.0,16.0,-999,-99.99,,,-99.99,,2013-06-13 19:33:00,
2013-06-13 14:43:00,61.0,-99.9,29.99,NNE,20,11.0,16.0,-999,-99.99,,,-99.99,,2013-06-13 19:43:00,
2013-06-13 14:53:00,61.0,-99.9,29.99,NNE,20,11.0,16.0,-999,-99.99,,,-99.99,,2013-06-13 19:53:00,
2013-06-13 15:00:00,62.0,-99.9,30.00,NNE,30,11.0,13.0,-999,-99.99,,,-99.99,,2013-06-13 20:00:00,
2013-06-13 15:12:00,61.0,-99.9,29.99,NNE,30,13.0,18.0,-999,-99.99,,,-99.99,,2013-06-13 20:12:00,
2013-06-13 15:22:00,61.0,-99.9,29.99,NNE,30,13.0,18.0,-999,-99.99,,,-99.99,,2013-06-13 20:22:00,
2013-06-13 15:30:00,62.0,-99.9,30.01,NNE,30,13.0,16.0,-999,-99.99,,,-99.99,,2013-06-13 20:30:00,
2013-06-13 15:33:00,62.0,-99.9,30.00,NNE,30,11.0,13.0,-999,-99.99,,,-99.99,,2013-06-13 20:33:00,
2013-06-13 16:00:00,62.0,-99.9,30.00,NNE,30,13.0,18.0,-999,-99.99,,,-99.99,,2013-06-13 21:00:00,
2013-06-13 16:12:00,62.0,-99.9,30.01,NNE,30,13.0,16.0,-999,-99.99,,,-99.99,,2013-06-13 21:12:00,
2013-06-13 16:22:00,62.0,-99.9,30.01,NNE,30,13.0,16.0,-999,-99.99,,,-99.99,,2013-06-13 21:22:00,
2013-06-13 16:43:00,62.0,-99.9,30.00,NNE,30,13.0,18.0,-999,-99.99,,,-99.99,,2013-06-13 21:43:00,
2013-06-13 16:52:00,62.0,-99.9,30.00,NNE,30,13.0,18.0,-999,-99.99,,,-99.99,,2013-06-13 21:52:00,
2013-06-13 17:33:00,62.0,-99.9,30.01,NNE,30,13.0,18.0,-999,-99.99,,,-99.99,,2013-06-13 22:33:00,
2013-06-13 17:43:00,62.0,-99.9,30.01,NNE,30,13.0,18.0,-999,-99.99,,,-99.99,,2013-06-13 22:43:00,
2013-06-13 17:52:00,62.0,-99.9,30.01,NNE,30,13.0,18.0,-999,-99.99,,,-99.99,,2013-06-13 22:52:00,
2013-06-13 18:00:00,63.0,-99.9,30.01,NNE,30,18.0,18.0,-999,-99.99,,,-99.99,,2013-06-13 23:00:00,
2013-06-13 18:02:00,62.0,-99.9,30.01,NNE,30,13.0,18.0,-999,-99.99,,,-99.99,,2013-06-13 23:02:00,
2013-06-13 18:12:00,62.0,-99.9,30.01,NNE,30,13.0,18.0,-999,-99.99,,,-99.99,,2013-06-13 23:12:00,
2013-06-13 18:22:00,62.0,-99.9,30.01,NNE,30,13.0,18.0,-999,-99.99,,,-99.99,,2013-06-13 23:22:00,
2013-06-13 18:32:00,63.0,-99.9,30.01,NNE,30,18.0,18.0,-999,-99.99,,,-99.99,,2013-06-13 23:32:00,
2013-06-13 18:43:00,63.0,-99.9,30.01,NNE,30,18.0,18.0,-999,-99.99,,,-99.99,,2013-06-13 23:43:00,
2013-06-13 18:52:00,63.0,-99.9,30.01,NNE,30,18.0,18.0,-999,-99.99,,,-99.99,,2013-06-13 23:52:00,
2013-06-13 19:00:00,63.0,-99.9,30.03,North,10,11.0,13.0,-999,-99.99,,,-99.99,,2013-06-14 00:00:00,
2013-06-13 19:34:00,63.0,-99.9,30.03,North,10,11.0,13.0,-999,-99.99,,,-99.99,,2013-06-14 00:34:00,
2013-06-13 19:43:00,63.0,-99.9,30.03,North,10,11.0,13.0,-999,-99.99,,,-99.99,,2013-06-14 00:43:00,
2013-06-13 19:53:00,63.0,-99.9,30.03,North,10,11.0,13.0,-999,-99.99,,,-99.99,,2013-06-14 00:53:00,
2013-06-13 20:30:00,62.0,-99.9,30.05,North,10,13.0,18.0,-999,-99.99,,,-99.99,,2013-06-14 01:30:00,
2013-06-13 21:00:00,62.0,-99.9,30.06,NNE,30,13.0,18.0,-999,-99.99,,,-99.99,,2013-06-14 02:00:00,
2013-06-13 21:02:00,62.0,-99.9,30.05,North,10,13.0,18.0,-999,-99.99,,,-99.99,,2013-06-14 02:02:00,
2013-06-13 21:11:00,62.0,-99.9,30.05,North,10,13.0,18.0,-999,-99.99,,,-99.99,,2013-06-14 02:11:00,
2013-06-13 21:22:00,62.0,-99.9,30.05,North,10,13.0,18.0,-999,-99.99,,,-99.99,,2013-06-14 02:22:00,
2013-06-13 21:43:00,62.0,-99.9,30.06,NNE,30,13.0,18.0,-999,-99.99,,,-99.99,,2013-06-14 02:43:00,
2013-06-13 21:53:00,62.0,-99.9,30.06,NNE,30,13.0,18.0,-999,-99.99,,,-99.99,,2013-06-14 02:53:00,
2013-06-13 23:00:00,63.0,-99.9,30.08,North,350,11.0,13.0,-999,-99.99,,,-99.99,,2013-06-14 04:00:00,
2013-06-13 23:43:00,63.0,-99.9,30.08,North,350,11.0,13.0,-999,-99.99,,,-99.99,,2013-06-14 04:43:00,
2013-06-13 23:53:00,63.0,-99.9,30.08,North,350,11.0,13.0,-999,-99.99,,,-99.99,,2013-06-14 04:53:00,